FW9594 Weather Reports


time (UTC)temp
F
wind
direction
speed
knots
gust
knots
rain 1hr
in
rain 24hr
in
rain mn
in
humidity
%
barometer
mb
20260506091217 57 38 5.2 9.6 0.00 0.03 0.03 76 1009.9
20260506090703 57 3 4.3 8.7 0.00 0.03 0.03 77 1009.9
20260506085217 57 25 3.5 10.4 0.00 0.03 0.03 77 1009.8
20260506084218 57 37 6.1 10.4 0.00 0.03 0.03 76 1009.6
20260506083218 57 55 5.2 10.4 0.00 0.03 0.03 77 1009.5
20260506082218 58 41 3.5 7.8 0.00 0.03 0.03 78 1009.6
20260506081218 57 55 3.5 8.7 0.00 0.03 0.03 78 1009.5
20260506080219 58 61 3.5 7.8 0.03 0.03 0.03 78 1009.5
20260506073218 58 59 2.6 6.1 0.03 0.00 0.03 79 1008.8
20260506072217 58 24 1.7 7.8 0.03 0.00 0.03 78 1008.9
20260506071218 58 59 3.5 6.1 0.03 0.00 0.03 79 1009.0
20260506070217 59 38 4.3 9.6 0.00 0.00 0.00 76 1009.1
20260506062217 60 35 6.1 11.3 0.00 0.00 0.00 78 1008.9
20260506061655 60 39 7.0 11.3 0.00 0.00 0.00 77 1009.1
20260506060721 60 30 5.2 6.1 0.00 0.00 0.00 78 1009.1
20260506051218 61 45 6.1 13.0 0.00 0.00 0.00 78 1009.2
20260506050217 61 42 4.3 11.3 0.00 0.00 0.00 78 1009.2
20260506044218 62 23 7.0 13.0 0.00 0.00 0.00 78 1009.0
20260506043217 62 51 6.1 13.0 0.00 0.00 0.00 77 1009.1
20260506042702 62 42 7.8 14.8 0.00 0.00 0.00 77 1009.0
20260506041218 63 41 7.0 13.0 0.00 0.00 0.00 77 1008.9
20260506040217 63 55 5.2 11.3 0.00 0.00 0.00 76 1008.8
20260506035652 64 25 7.8 10.4 0.00 0.00 0.00 76 1008.4
20260506034708 64 16 6.1 12.2 0.00 0.00 0.00 77 1008.2
20260506033216 65 51 5.2 12.2 0.00 0.00 0.00 76 1008.0
20260506032216 65 350 6.1 10.4 0.00 0.00 0.00 76 1008.0
20260506031216 66 38 7.8 13.0 0.00 0.00 0.00 75 1008.0
20260506030216 67 49 6.1 10.4 0.00 0.00 0.00 75 1007.7
20260506025659 67 52 5.2 11.3 0.00 0.00 0.00 75 1007.6
20260506024214 68 25 5.2 10.4 0.00 0.00 0.00 74 1007.6
20260506023215 68 34 6.1 10.4 0.00 0.00 0.00 74 1007.2
20260506022215 68 31 5.2 9.6 0.00 0.00 0.00 73 1006.8
20260506021701 68 345 3.5 8.7 0.00 0.00 0.00 72 1006.5
20260506020215 68 47 3.5 9.6 0.00 0.00 0.00 72 1006.6
20260506015215 68 42 7.0 10.4 0.00 0.00 0.00 71 1006.0
20260506014648 69 32 4.3 9.6 0.00 0.00 0.00 71 1006.0
20260506013215 69 51 4.3 11.3 0.00 0.00 0.00 71 1005.8
20260506012214 69 51 7.0 11.3 0.00 0.00 0.00 70 1005.7
20260506011216 70 44 6.1 12.2 0.00 0.00 0.00 69 1005.9
20260506010659 71 8 5.2 7.8 0.00 0.00 0.00 69 1005.6
20260506005215 72 45 4.3 9.6 0.00 0.00 0.00 67 1005.5
20260506004216 72 37 5.2 10.4 0.00 0.00 0.00 68 1004.9
20260506003216 73 45 4.3 7.8 0.00 0.00 0.00 68 1004.7
20260506002215 73 31 5.2 9.6 0.00 0.00 0.00 66 1004.6
20260506001654 74 20 7.0 13.9 0.00 0.00 0.00 66 1004.4
20260506000702 75 35 8.7 14.8 0.00 0.00 0.00 66 1004.5
20260505235217 76 58 7.0 12.2 0.00 0.00 0.00 64 1004.4
20260505234217 78 25 8.7 14.8 0.00 0.00 0.00 63 1004.1
20260505233654 78 298 2.6 9.6 0.00 0.00 0.00 62 1004.0
20260505232217 79 47 5.2 13.9 0.00 0.00 0.00 61 1004.2
20260505231218 81 51 4.3 12.2 0.00 0.00 0.00 61 1003.8
20260505230217 82 68 4.3 11.3 0.00 0.00 0.00 59 1003.8
20260505225217 82 344 3.5 10.4 0.00 0.00 0.00 58 1003.6
20260505224217 83 28 3.5 9.6 0.00 0.00 0.00 57 1003.3
20260505223216 84 285 2.6 10.4 0.00 0.00 0.00 56 1003.3
20260505222217 85 38 3.5 10.4 0.00 0.00 0.00 51 1003.1
20260505221217 86 44 5.2 8.7 0.00 0.00 0.00 49 1003.0
20260505220216 86 290 3.5 9.6 0.00 0.00 0.00 48 1002.8
20260505215217 87 24 4.3 11.3 0.00 0.00 0.00 50 1002.9
20260505214216 89 54 6.1 12.2 0.00 0.00 0.00 45 1003.0
20260505213217 91 293 4.3 6.1 0.00 0.00 0.00 51 1002.8
20260505212218 90 309 3.5 7.8 0.00 0.00 0.00 49 1002.9
20260505211217 91 272 3.5 7.8 0.00 0.00 0.00 49 1003.1
20260505210218 90 296 4.3 11.3 0.00 0.00 0.00 49 1003.1
20260505205216 90 274 4.3 9.6 0.00 0.00 0.00 50 1003.3
20260505204217 90 282 4.3 10.4 0.00 0.00 0.00 53 1003.2
20260505203218 90 290 3.5 6.1 0.00 0.00 0.00 55 1003.4
20260505202216 91 293 5.2 8.7 0.00 0.00 0.00 53 1003.5
20260505201217 89 123 6.1 12.2 0.00 0.00 0.00 55 1003.6
20260505200216 89 245 3.5 8.7 0.00 0.00 0.00 56 1003.7
20260505195217 90 235 2.6 7.8 0.00 0.00 0.00 55 1003.6
20260505194216 89 271 3.5 10.4 0.00 0.00 0.00 56 1003.7
20260505193656 89 279 3.5 8.7 0.00 0.00 0.00 59 1003.8
20260505192217 89 286 2.6 6.1 0.00 0.00 0.00 59 1003.8
20260505191217 89 274 1.7 6.1 0.00 0.00 0.00 59 1003.7
20260505190216 88 195 1.7 7.8 0.00 0.00 0.00 58 1003.8
20260505185217 87 228 2.6 11.3 0.00 0.00 0.00 61 1003.7
20260505184216 85 173 2.6 8.7 0.00 0.00 0.00 63 1003.8
20260505183217 85 228 2.6 10.4 0.00 0.00 0.00 62 1004.0
20260505182217 85 271 2.6 7.8 0.00 0.00 0.00 63 1004.0
20260505181217 85 248 2.6 8.7 0.00 0.00 0.00 62 1003.8
20260505180217 85 189 2.6 8.7 0.00 0.00 0.00 63 1004.0
20260505180133 84 300 3.5 11.3 0.00 0.00 0.00 65 1004.0
20260505174217 84 219 2.6 8.7 0.00 0.00 0.00 65 1003.9
20260505174140 84 240 1.7 7.8 0.00 0.00 0.00 65 1003.9
20260505172216 84 276 1.7 7.8 0.00 0.00 0.00 68 1003.9
20260505171216 83 220 1.7 7.8 0.00 0.00 0.00 67 1003.9
20260505170217 82 202 1.7 7.8 0.00 0.00 0.00 68 1004.2
20260505165216 81 243 2.6 13.0 0.00 0.00 0.00 69 1004.0
20260505164216 81 106 2.6 8.7 0.00 0.00 0.00 68 1004.1
20260505163216 81 214 1.7 10.4 0.00 0.00 0.00 69 1003.9
20260505162216 80 235 2.6 7.8 0.00 0.00 0.00 70 1003.9
20260505161216 80 193 2.6 9.6 0.00 0.00 0.00 71 1003.8
20260505160217 79 281 1.7 6.1 0.00 0.00 0.00 72 1003.8
20260505152216 77 193 3.5 8.7 0.00 0.00 0.00 74 1003.7
20260505151215 77 224 2.6 9.6 0.00 0.00 0.00 74 1003.6
20260505150216 76 245 2.6 9.6 0.00 0.00 0.00 77 1003.8
20260505140214 73 266 1.7 8.7 0.00 0.00 0.00 81 1003.5
20260505130215 71 155 2.6 9.6 0.00 0.00 0.00 83 1003.4
20260505124215 71 275 1.7 7.8 0.00 0.00 0.00 84 1003.0
20260505123214 71 193 1.7 7.8 0.00 0.00 0.00 84 1003.1
20260505122215 70 214 1.7 6.1 0.00 0.00 0.00 84 1002.9
20260505121215 70 266 2.6 7.8 0.00 0.00 0.00 84 1002.7
20260505120215 70 144 0.9 8.7 0.00 0.00 0.00 84 1002.7
20260505115214 70 190 1.7 7.8 0.00 0.00 0.00 84 1002.8
20260505114216 70 259 2.6 8.7 0.00 0.00 0.00 84 1002.6
20260505113214 70 244 0.9 7.8 0.00 0.00 0.00 84 1002.5
20260505112214 70 233 1.7 5.2 0.00 0.00 0.00 84 1002.4
20260505111215 70 258 2.6 7.8 0.00 0.00 0.00 84 1002.5
20260505110215 70 204 1.7 7.8 0.00 0.00 0.00 84 1002.6
20260505102216 71 276 2.6 8.7 0.00 0.00 0.00 83 1002.6
20260505101216 71 202 0.9 6.1 0.00 0.00 0.00 83 1002.6
20260505100216 71 226 3.5 9.6 0.00 0.00 0.00 82 1002.8
20260505095701 71 251 2.6 6.1 0.00 0.00 0.00 82 1002.8
20260505094215 71 213 1.7 9.6 0.00 0.00 0.00 82 1002.7
20260505093216 71 262 2.6 9.6 0.00 0.00 0.00 82 1002.8
20260505092216 71 279 1.7 7.8 0.00 0.00 0.00 81 1002.9